Regional Weather Roundup
Issued by NWS

Home | Current Version | Previous Version | Graphics & Text | Print | Product List | Glossary On
Versions: 1 2 3 4 5 6 7 8 9 10 11 12 13 14 15 16 17 18 19 20 21 22 23 24 25 26 27 28 29 30 31 32 33 34 35 36 37 38 39 40 41 42 43 44 45 46 47 48 49 50
757
ASUS43 KLMK 260002
RWRKY
KENTUCKY REGIONAL WEATHER ROUNDUP
NATIONAL WEATHER SERVICE LOUISVILLE KY
800 PM EDT SAT MAR 25 2017

NOTE "FAIR" INDICATES FEW OR NO CLOUDS BELOW 12,000 FEET
WITH NO SIGNIFICANT WEATHER AND/OR OBSTRUCTIONS TO VISIBILITY.

KYZ001>023-026-027-061>063-070>075-260100-
WESTERN AND SOUTH CENTRAL KENTUCKY

CITY           SKY/WX    TMP DP  RH WIND       PRES   REMARKS
PADUCAH        MOCLDY    65  55  70 S10       29.88R
HENDERSON      CLOUDY    64  52  63 SE8       29.90S
OWENSBORO      CLOUDY    65  58  78 SE13      29.94R
HOPKINSVILLE   CLOUDY    69  54  59 S8        29.93R
BOWLING GREEN  MOCLDY    67  55  65 S15       29.98R
GLASGOW        NOT AVBL
$$

KYZ024-025-028>034-038-045-046-053-260100-
NORTH CENTRAL KENTUCKY

CITY           SKY/WX    TMP DP  RH WIND       PRES   REMARKS
LOUISVILLE/SDF LGT RAIN  73  49  42 S14       29.98R
LOUISVILLE/LOU CLOUDY    74  49  41 SE9       29.98R
FORT KNOX      CLOUDY    61  60  96 SE5       29.97F
$$

KYZ035>037-039>044-047>052-055>060-089>105-260100-
NORTHEAST KENTUCKY

CITY           SKY/WX    TMP DP  RH WIND       PRES   REMARKS
LEXINGTON      PTCLDY    68  49  50 S7        30.03S
COVINGTON      CLOUDY    71  51  49 SE12      30.00S
FRANKFORT      PTCLDY    72  48  42 SE8       30.00S
$$

KYZ054-064>069-076>088-106>120-260100-
SOUTHEAST KENTUCKY

CITY           SKY/WX    TMP DP  RH WIND       PRES   REMARKS
JACKSON        CLOUDY    72  45  37 CALM      30.07R
LONDON         MOCLDY    70  45  40 S5        30.07R
SOMERSET       NOT AVBL
MIDDLESBORO    PTCLDY    71  48  44 CALM      30.08S
MONTICELLO     CLOUDY    70  51  51 E8        30.05R
$$





USA.gov is the U.S. government's official web portal to all federal, state and local government web resources and services.